カタリナ彗星

C/2010 L3 ( Catalina )

English version
Home page
Updated on May 5, 2012

---------------------------------------------------------------------

・ プロフィール

発見日 2010年6月15日
発見光度 19.6等
発見者 Catalina Sky Survey

・ 写真集

・ 軌道要素

Epoch 2010 Nov. 20.0 TT = JDT 2455520.5
T 2010 Nov. 10.39739 TT                                 MPC
q   9.8828410            (2000.0)            P               Q
z  +0.0000896      Peri.  121.77110     -0.29818718     -0.73872730
 +/-0.0000025      Node    38.27573     -0.76312947     -0.19587273
e   0.9991144      Incl.  102.63085     +0.57333918     -0.64491538
From 107 observations 2010 June 15-2012 May 1, mean residual 0".5.

・ 光度変化

        m1 = 4.5 + 5 logΔ + 10.0 log r

---------------------------------------------------------------------

軌道要素はM.P.E.C. 2012-J16に掲載されたものです。
光度グラフはComet for Windowsで作成したものです。

---------------------------------------------------------------------

Copyright(C) Seiichi Yoshida (comet@aerith.net). All rights reserved.